******** Week 365 almanac for PRN-1 ******** ID: 1 Health: 0 Eccentricity: 0.001687049866 Time of Applicability(s): 405504 Orbital Inclination(rad): 0.9577516907 Rate of Right Ascen(r/s): -8.000333246e-09 SQRT(A) (m 1/2): 5153.569336 Right Ascen at Week(rad): 2.508700869 Argument of Perigee(rad): 0.1560634454 Mean Anom(rad): 1.782898758 Af0(s): 0.000238161084 Af1(s/s): -7.275958e-12 week: 365 ******** Week 365 almanac for PRN-2 ******** ID: 2 Health: 0 Eccentricity: 0.01683044434 Time of Applicability(s): 405504 Orbital Inclination(rad): 0.9628509784 Rate of Right Ascen(r/s): -7.897471818e-09 SQRT(A) (m 1/2): 5153.529785 Right Ascen at Week(rad): 2.346323609 Argument of Perigee(rad): -0.7896769065 Mean Anom(rad): -2.979272321 Af0(s): 5.9540271e-05 Af1(s/s): 7.275958e-12 week: 365 ******** Week 365 almanac for PRN-3 ******** ID: 3 Health: 0 Eccentricity: 0.006664276123 Time of Applicability(s): 405504 Orbital Inclination(rad): 0.9940339316 Rate of Right Ascen(r/s): -7.691748963e-09 SQRT(A) (m 1/2): 5153.565918 Right Ascen at Week(rad): -2.786435656 Argument of Perigee(rad): 1.208040206 Mean Anom(rad): -0.2846496846 Af0(s): 0.000402462085 Af1(s/s): -1.455192e-11 week: 365 ******** Week 365 almanac for PRN-4 ******** ID: 4 Health: 0 Eccentricity: 0.003733158112 Time of Applicability(s): 405504 Orbital Inclination(rad): 0.97071263 Rate of Right Ascen(r/s): -7.737465153e-09 SQRT(A) (m 1/2): 5153.670898 Right Ascen at Week(rad): -1.71672786 Argument of Perigee(rad): -2.869758975 Mean Anom(rad): 2.668310147 Af0(s): 4.14520874e-05 Af1(s/s): 0 week: 365 ******** Week 365 almanac for PRN-5 ******** ID: 5 Health: 0 Eccentricity: 0.005483627319 Time of Applicability(s): 405504 Orbital Inclination(rad): 0.9805516786 Rate of Right Ascen(r/s): -7.828897533e-09 SQRT(A) (m 1/2): 5153.680664 Right Ascen at Week(rad): -2.846648147 Argument of Perigee(rad): 1.42086918 Mean Anom(rad): -2.945774914 Af0(s): -0.0001831428589 Af1(s/s): 0 week: 365 ******** Week 365 almanac for PRN-6 ******** ID: 6 Health: 0 Eccentricity: 0.003796100616 Time of Applicability(s): 405504 Orbital Inclination(rad): 0.9865617674 Rate of Right Ascen(r/s): -7.714607058e-09 SQRT(A) (m 1/2): 5153.615723 Right Ascen at Week(rad): 2.460289094 Argument of Perigee(rad): -0.5349544531 Mean Anom(rad): 1.001568864 Af0(s): -0.0004831052368 Af1(s/s): 0 week: 365 ******** Week 365 almanac for PRN-7 ******** ID: 7 Health: 0 Eccentricity: 0.02071094513 Time of Applicability(s): 405504 Orbital Inclination(rad): 0.9509686194 Rate of Right Ascen(r/s): -7.840326581e-09 SQRT(A) (m 1/2): 5153.556641 Right Ascen at Week(rad): -0.7080212666 Argument of Perigee(rad): -1.979830657 Mean Anom(rad): 0.1674402199 Af0(s): -0.0001349077026 Af1(s/s): -3.637979e-12 week: 365 ******** Week 365 almanac for PRN-8 ******** ID: 8 Health: 0 Eccentricity: 0.01159954071 Time of Applicability(s): 405504 Orbital Inclination(rad): 0.9428972439 Rate of Right Ascen(r/s): -8.011762293e-09 SQRT(A) (m 1/2): 5153.649414 Right Ascen at Week(rad): 1.338047325 Argument of Perigee(rad): 0.5347507213 Mean Anom(rad): 2.977155232 Af0(s): 0.0003670393921 Af1(s/s): -7.275958e-12 week: 365 ******** Week 365 almanac for PRN-9 ******** ID: 9 Health: 0 Eccentricity: 0.003346920013 Time of Applicability(s): 405504 Orbital Inclination(rad): 0.9649482178 Rate of Right Ascen(r/s): -7.806039438e-09 SQRT(A) (m 1/2): 5153.708984 Right Ascen at Week(rad): -1.781245309 Argument of Perigee(rad): 2.056928921 Mean Anom(rad): -2.711527883 Af0(s): 0.0006014321045 Af1(s/s): -3.637979e-12 week: 365 ******** Week 365 almanac for PRN-10 ******** ID: 10 Health: 0 Eccentricity: 0.01093149185 Time of Applicability(s): 405504 Orbital Inclination(rad): 0.9935665468 Rate of Right Ascen(r/s): -7.680319916e-09 SQRT(A) (m 1/2): 5153.608398 Right Ascen at Week(rad): -2.788942606 Argument of Perigee(rad): -2.25708982 Mean Anom(rad): -1.276798947 Af0(s): -0.0004657707275 Af1(s/s): 0 week: 365 ******** Week 365 almanac for PRN-11 ******** ID: 11 Health: 0 Eccentricity: 0.002212047577 Time of Applicability(s): 405504 Orbital Inclination(rad): 0.9634501897 Rate of Right Ascen(r/s): -7.954617056e-09 SQRT(A) (m 1/2): 5153.54541 Right Ascen at Week(rad): 2.47824371 Argument of Perigee(rad): -2.326138804 Mean Anom(rad): 2.159949812 Af0(s): -0.0002992087036 Af1(s/s): 1.455192e-11 week: 365 ******** Week 365 almanac for PRN-12 ******** ID: 12 Health: 0 Eccentricity: 0.008925914764 Time of Applicability(s): 405504 Orbital Inclination(rad): 0.9593695611 Rate of Right Ascen(r/s): -7.806039438e-09 SQRT(A) (m 1/2): 5153.697266 Right Ascen at Week(rad): 0.4096852226 Argument of Perigee(rad): 1.571237122 Mean Anom(rad): -0.5310648231 Af0(s): -0.0004808442139 Af1(s/s): 0 week: 365 ******** Week 365 almanac for PRN-13 ******** ID: 13 Health: 0 Eccentricity: 0.01010084152 Time of Applicability(s): 405504 Orbital Inclination(rad): 0.9762493419 Rate of Right Ascen(r/s): -7.668890868e-09 SQRT(A) (m 1/2): 5153.626465 Right Ascen at Week(rad): -1.605603385 Argument of Perigee(rad): 0.9942289004 Mean Anom(rad): 2.747225144 Af0(s): 0.0005373697876 Af1(s/s): 0 week: 365 ******** Week 365 almanac for PRN-14 ******** ID: 14 Health: 0 Eccentricity: 0.0069231987 Time of Applicability(s): 405504 Orbital Inclination(rad): 0.9427114885 Rate of Right Ascen(r/s): -7.988904198e-09 SQRT(A) (m 1/2): 5153.597656 Right Ascen at Week(rad): 0.3544705279 Argument of Perigee(rad): -2.731534423 Mean Anom(rad): -0.6661951981 Af0(s): 0.0005871122925 Af1(s/s): 0 week: 365 ******** Week 365 almanac for PRN-15 ******** ID: 15 Health: 0 Eccentricity: 0.0166478157 Time of Applicability(s): 405504 Orbital Inclination(rad): 0.9429571651 Rate of Right Ascen(r/s): -8.046049436e-09 SQRT(A) (m 1/2): 5153.660645 Right Ascen at Week(rad): -1.926237952 Argument of Perigee(rad): 1.508852865 Mean Anom(rad): 1.981368008 Af0(s): 0.0003172968872 Af1(s/s): 3.637979e-12 week: 365 ******** Week 365 almanac for PRN-16 ******** ID: 16 Health: 0 Eccentricity: 0.01501512527 Time of Applicability(s): 405504 Orbital Inclination(rad): 0.9584827284 Rate of Right Ascen(r/s): -7.794610391e-09 SQRT(A) (m 1/2): 5153.610352 Right Ascen at Week(rad): 0.426593466 Argument of Perigee(rad): 0.9324442289 Mean Anom(rad): -2.262905914 Af0(s): 0.0001914332764 Af1(s/s): 7.275958e-12 week: 365 ******** Week 365 almanac for PRN-17 ******** ID: 17 Health: 0 Eccentricity: 0.01261281967 Time of Applicability(s): 405504 Orbital Inclination(rad): 0.9585066969 Rate of Right Ascen(r/s): -7.840326581e-09 SQRT(A) (m 1/2): 5153.564453 Right Ascen at Week(rad): 1.443373307 Argument of Perigee(rad): -1.114870722 Mean Anom(rad): 2.934613481 Af0(s): -8.591887207e-05 Af1(s/s): -1.091394e-11 week: 365 ******** Week 365 almanac for PRN-18 ******** ID: 18 Health: 0 Eccentricity: 0.005834102631 Time of Applicability(s): 405504 Orbital Inclination(rad): 0.9715275572 Rate of Right Ascen(r/s): -7.851755628e-09 SQRT(A) (m 1/2): 5153.586426 Right Ascen at Week(rad): 2.45471643 Argument of Perigee(rad): -2.872025117 Mean Anom(rad): 0.9526900788 Af0(s): -0.0003007160522 Af1(s/s): 1.091394e-11 week: 365 ******** Week 365 almanac for PRN-19 ******** ID: 19 Health: 0 Eccentricity: 0.01129961014 Time of Applicability(s): 405504 Orbital Inclination(rad): 0.9576678011 Rate of Right Ascen(r/s): -7.828897533e-09 SQRT(A) (m 1/2): 5153.680176 Right Ascen at Week(rad): 1.487252049 Argument of Perigee(rad): 2.950016581 Mean Anom(rad): -1.57787451 Af0(s): 0.000550182251 Af1(s/s): 0 week: 365 ******** Week 365 almanac for PRN-20 ******** ID: 20 Health: 0 Eccentricity: 0.002224445343 Time of Applicability(s): 405504 Orbital Inclination(rad): 0.9603402833 Rate of Right Ascen(r/s): -7.874613723e-09 SQRT(A) (m 1/2): 5153.711426 Right Ascen at Week(rad): -1.775823196 Argument of Perigee(rad): -1.932335301 Mean Anom(rad): -0.6040951917 Af0(s): 7.838212891e-05 Af1(s/s): 1.818989e-11 week: 365 ******** Week 365 almanac for PRN-21 ******** ID: 21 Health: 0 Eccentricity: 0.0008230209351 Time of Applicability(s): 405504 Orbital Inclination(rad): 0.9634322133 Rate of Right Ascen(r/s): -7.988904198e-09 SQRT(A) (m 1/2): 5153.736816 Right Ascen at Week(rad): -2.781328129 Argument of Perigee(rad): -0.2065499889 Mean Anom(rad): -0.9375038188 Af0(s): 0.0003270946533 Af1(s/s): 0 week: 365 ******** Week 365 almanac for PRN-22 ******** ID: 22 Health: 0 Eccentricity: 0.01201868057 Time of Applicability(s): 405504 Orbital Inclination(rad): 0.957925462 Rate of Right Ascen(r/s): -7.828897533e-09 SQRT(A) (m 1/2): 5153.566406 Right Ascen at Week(rad): 0.429952794 Argument of Perigee(rad): -0.9926312534 Mean Anom(rad): -2.70107689 Af0(s): -1.658083496e-05 Af1(s/s): 7.275958e-12 week: 365 ******** Week 365 almanac for PRN-23 ******** ID: 23 Health: 0 Eccentricity: 0.006098747253 Time of Applicability(s): 405504 Orbital Inclination(rad): 0.9885451566 Rate of Right Ascen(r/s): -7.748894201e-09 SQRT(A) (m 1/2): 5153.666016 Right Ascen at Week(rad): -2.821196274 Argument of Perigee(rad): -2.740872381 Mean Anom(rad): -0.2073476888 Af0(s): 0.0005011934204 Af1(s/s): 3.637979e-12 week: 365 ******** Week 365 almanac for PRN-24 ******** ID: 24 Health: 0 Eccentricity: 0.0179772377 Time of Applicability(s): 405504 Orbital Inclination(rad): 0.9349337265 Rate of Right Ascen(r/s): -8.023191341e-09 SQRT(A) (m 1/2): 5153.585938 Right Ascen at Week(rad): -0.8172091652 Argument of Perigee(rad): 1.140624447 Mean Anom(rad): 1.149299153 Af0(s): -3.466901855e-05 Af1(s/s): 1.818989e-11 week: 365 ******** Week 365 almanac for PRN-25 ******** ID: 25 Health: 0 Eccentricity: 0.01289510727 Time of Applicability(s): 405504 Orbital Inclination(rad): 0.9477568471 Rate of Right Ascen(r/s): -7.931758961e-09 SQRT(A) (m 1/2): 5153.650879 Right Ascen at Week(rad): 0.3154738601 Argument of Perigee(rad): 1.159886092 Mean Anom(rad): -0.643994047 Af0(s): 0.000340660791 Af1(s/s): -3.637979e-12 week: 365 ******** Week 365 almanac for PRN-26 ******** ID: 26 Health: 0 Eccentricity: 0.01102876663 Time of Applicability(s): 405504 Orbital Inclination(rad): 0.9285281583 Rate of Right Ascen(r/s): -8.126052768e-09 SQRT(A) (m 1/2): 5153.674805 Right Ascen at Week(rad): 0.2402687292 Argument of Perigee(rad): 0.7125430644 Mean Anom(rad): -1.467053761 Af0(s): -0.0002781058228 Af1(s/s): -3.637979e-12 week: 365 ******** Week 365 almanac for PRN-27 ******** ID: 27 Health: 0 Eccentricity: 0.01437568665 Time of Applicability(s): 405504 Orbital Inclination(rad): 0.9519752943 Rate of Right Ascen(r/s): -7.908900866e-09 SQRT(A) (m 1/2): 5153.617676 Right Ascen at Week(rad): 1.370415967 Argument of Perigee(rad): 0.8913087514 Mean Anom(rad): 3.085573145 Af0(s): -7.913580322e-05 Af1(s/s): -1.455192e-11 week: 365 ******** Week 365 almanac for PRN-28 ******** ID: 28 Health: 0 Eccentricity: 0.0003900527954 Time of Applicability(s): 405504 Orbital Inclination(rad): 0.9618742641 Rate of Right Ascen(r/s): -7.748894201e-09 SQRT(A) (m 1/2): 5153.512207 Right Ascen at Week(rad): -0.7333420613 Argument of Perigee(rad): -0.3511752406 Mean Anom(rad): 0.8365550748 Af0(s): -0.0004416531494 Af1(s/s): 7.275958e-12 week: 365 ******** Week 365 almanac for PRN-29 ******** ID: 29 Health: 0 Eccentricity: 0.003474712372 Time of Applicability(s): 405504 Orbital Inclination(rad): 0.9611671948 Rate of Right Ascen(r/s): -7.828897533e-09 SQRT(A) (m 1/2): 5153.69043 Right Ascen at Week(rad): 1.460211143 Argument of Perigee(rad): 2.756801289 Mean Anom(rad): 2.921592246 Af0(s): -0.0002713227539 Af1(s/s): 7.275958e-12 week: 365 ******** Week 365 almanac for PRN-30 ******** ID: 30 Health: 0 Eccentricity: 0.008186340332 Time of Applicability(s): 405504 Orbital Inclination(rad): 0.936240007 Rate of Right Ascen(r/s): -8.011762293e-09 SQRT(A) (m 1/2): 5153.680176 Right Ascen at Week(rad): -0.7175704468 Argument of Perigee(rad): -2.293666798 Mean Anom(rad): -0.04913831819 Af0(s): 0.0001439517944 Af1(s/s): 1.455192e-11 week: 365 ******** Week 365 almanac for PRN-31 ******** ID: 31 Health: 0 Eccentricity: 0.01081705093 Time of Applicability(s): 405504 Orbital Inclination(rad): 0.954731666 Rate of Right Ascen(r/s): -7.817468486e-09 SQRT(A) (m 1/2): 5153.530762 Right Ascen at Week(rad): -0.6836374885 Argument of Perigee(rad): 0.9428633889 Mean Anom(rad): -0.9147045799 Af0(s): -0.0001236025879 Af1(s/s): 3.637979e-12 week: 365 ******** Week 365 almanac for PRN-32 ******** ID: 32 Health: 0 Eccentricity: 0.009396553039 Time of Applicability(s): 405504 Orbital Inclination(rad): 0.9679622503 Rate of Right Ascen(r/s): -7.760323248e-09 SQRT(A) (m 1/2): 5153.700684 Right Ascen at Week(rad): -1.764111238 Argument of Perigee(rad): -1.984231489 Mean Anom(rad): -2.645724002 Af0(s): -5.275720215e-06 Af1(s/s): 1.818989e-11 week: 365